Valley City, ND

8:37 PM CST on November 16, 2019 (GMT -0600)
Valley City

Weather History for KBAC - August, 2019

Change the Weather History Date:

Thursday, August 29, 2019

  Actual Average (WUND) Record (WUND)
Temperature  
Mean Temperature 60 °F -  
Max Temperature 68 °F - - (-1)
Min Temperature 51 °F - - (-1)
Degree Days  
Heating Degree Days 6    
Growing Degree Days 10 (Base 50)    
Moisture  
Dew Point 50 °F    
Average Humidity 74    
Maximum Humidity 100    
Minimum Humidity 49    
Precipitation  
Precipitation 0.00 in - - ()
Sea Level Pressure  
Sea Level Pressure 29.95 in    
Wind  
Wind Speed 14 mph ()    
Max Wind Speed 25 mph    
Max Gust Speed 31 mph    
Visibility 10.0 miles    
Events      
Averages and records for this station are not official NWS values.
T = Trace of Precipitation, MM = Missing Value Source: Averaged Metar Reports

Daily Weather History Graph

Daily Weather History Graph

Search for Another Location

Airport or City:

Astronomy

Aug. 29, 2019 Rise Set
Actual Time 6:47 AM CDT 8:17 PM CDT
Civil Twilight 6:15 AM CDT 8:49 PM CDT
Nautical Twilight 5:36 AM CDT 9:27 PM CDT
Astronomical Twilight 4:55 AM CDT 10:09 PM CDT
Moon 5:26 AM CDT (8/29) 8:20 PM CDT (8/29)
Length of Visible Light 14h 33m
Length of Day
13h 30m
Waning Crescent, 1% of the Moon is Illuminated
Aug 29
Waning Crescent
Aug 30
New
Sep 5
First Quarter
Sep 13
Full
Sep 21
Last Quarter

Hourly Weather History & Observations

Time (CDT) Temp. Dew Point Humidity Pressure Visibility Wind Dir Wind Speed Gust Speed Precip Events Conditions
12:15 AM 60.8 °F 51.8 °F 72% 29.72 in 10.0 mi SSW 15.0 mph - N/A   Clear
2:15 AM 60.8 °F 51.8 °F 72% 29.72 in 10.0 mi WSW 17.3 mph - N/A   Mostly Cloudy
2:35 AM 59.0 °F 53.6 °F 82% 29.73 in 10.0 mi WSW 16.1 mph - N/A   Partly Cloudy
2:55 AM 60.8 °F 53.6 °F 77% 29.74 in 10.0 mi West 15.0 mph 20.7 mph N/A   Clear
3:15 AM 59.0 °F 53.6 °F 82% 29.74 in 10.0 mi West 15.0 mph - N/A   Clear
3:35 AM 60.8 °F 53.6 °F 77% 29.75 in 10.0 mi West 12.7 mph 21.9 mph N/A   Scattered Clouds
3:55 AM 59.0 °F 53.6 °F 82% 29.76 in 10.0 mi West 12.7 mph - N/A   Clear
4:15 AM 59.0 °F 55.4 °F 88% 29.77 in 10.0 mi WNW 12.7 mph - N/A   Clear
4:35 AM 59.0 °F 53.6 °F 82% 29.77 in 10.0 mi WNW 13.8 mph 19.6 mph N/A   Clear
4:55 AM 57.2 °F 53.6 °F 88% 29.78 in 10.0 mi WNW 13.8 mph - N/A   Clear
5:15 AM 57.2 °F 53.6 °F 88% 29.78 in 10.0 mi WNW 16.1 mph - N/A   Clear
5:35 AM 55.4 °F 53.6 °F 94% 29.80 in 10.0 mi WNW 13.8 mph - N/A   Clear
5:55 AM 55.4 °F 53.6 °F 94% 29.81 in 10.0 mi WNW 13.8 mph - N/A   Clear
6:15 AM 55.4 °F 53.6 °F 94% 29.82 in 10.0 mi WNW 15.0 mph - N/A   Clear
6:35 AM 53.6 °F 51.8 °F 94% 29.84 in 10.0 mi WNW 15.0 mph - N/A   Clear
6:55 AM 53.6 °F 51.8 °F 94% 29.85 in 10.0 mi WNW 16.1 mph - N/A   Clear
7:15 AM 53.6 °F 51.8 °F 94% 29.87 in 10.0 mi WNW 17.3 mph 23.0 mph N/A   Clear
7:35 AM 55.4 °F 50.0 °F 82% 29.88 in 10.0 mi NW 15.0 mph 26.5 mph N/A   Clear
7:55 AM 55.4 °F 50.0 °F 82% 29.90 in 10.0 mi NW 20.7 mph - N/A   Clear
8:15 AM 55.4 °F 50.0 °F 82% 29.91 in 10.0 mi WNW 21.9 mph 27.6 mph N/A   Clear
8:35 AM 55.4 °F 50.0 °F 82% 29.91 in 10.0 mi NW 17.3 mph 24.2 mph N/A   Clear
8:55 AM 57.2 °F 50.0 °F 77% 29.92 in 10.0 mi NW 21.9 mph 28.8 mph N/A   Clear
9:15 AM 57.2 °F 50.0 °F 77% 29.93 in 10.0 mi NW 20.7 mph 27.6 mph N/A   Clear
9:35 AM 59.0 °F 50.0 °F 72% 29.94 in 10.0 mi NW 25.3 mph - N/A   Clear
9:55 AM 59.0 °F 50.0 °F 72% 29.94 in 10.0 mi NW 18.4 mph 31.1 mph N/A   Clear
10:15 AM 59.0 °F 50.0 °F 72% 29.96 in 10.0 mi NNW 19.6 mph 28.8 mph N/A   Scattered Clouds
10:35 AM 59.0 °F 50.0 °F 72% 29.97 in 10.0 mi NW 15.0 mph 28.8 mph N/A   Mostly Cloudy
10:55 AM 59.0 °F 50.0 °F 72% 29.98 in 10.0 mi NW 18.4 mph - N/A   Mostly Cloudy
11:15 AM 60.8 °F 50.0 °F 68% 29.98 in 10.0 mi NW 17.3 mph 24.2 mph N/A   Mostly Cloudy
11:35 AM 60.8 °F 50.0 °F 68% 29.99 in 10.0 mi NW 15.0 mph 24.2 mph N/A   Overcast
1:15 PM 64.4 °F 50.0 °F 59% 30.00 in 10.0 mi NW 17.3 mph 26.5 mph N/A   Partly Cloudy
1:35 PM 64.4 °F 50.0 °F 59% 30.01 in 10.0 mi NW 18.4 mph - N/A   Partly Cloudy
1:55 PM 66.2 °F 50.0 °F 56% 30.01 in 10.0 mi NW 19.6 mph 27.6 mph N/A   Scattered Clouds
2:15 PM 64.4 °F 48.2 °F 56% 30.02 in 10.0 mi NNW 19.6 mph 27.6 mph N/A   Mostly Cloudy
2:35 PM 66.2 °F 48.2 °F 52% 30.02 in 10.0 mi NW 18.4 mph 26.5 mph N/A   Mostly Cloudy
2:55 PM 64.4 °F 48.2 °F 56% 30.02 in 10.0 mi NW 15.0 mph - N/A   Scattered Clouds
3:15 PM 68.0 °F 50.0 °F 52% 30.01 in 10.0 mi NW 16.1 mph 25.3 mph N/A   Mostly Cloudy
3:35 PM 68.0 °F 50.0 °F 52% 30.01 in 10.0 mi WNW 20.7 mph - N/A   Mostly Cloudy
3:55 PM 66.2 °F 48.2 °F 52% 30.02 in 10.0 mi NW 20.7 mph 26.5 mph N/A   Partly Cloudy
4:15 PM 66.2 °F 48.2 °F 52% 30.02 in 10.0 mi NW 17.3 mph - N/A   Mostly Cloudy
4:35 PM 68.0 °F 48.2 °F 49% 30.02 in 10.0 mi NNW 18.4 mph 25.3 mph N/A   Mostly Cloudy
5:15 PM 66.2 °F 48.2 °F 52% 30.02 in 10.0 mi NW 16.1 mph - N/A   Partly Cloudy
5:35 PM 68.0 °F 48.2 °F 49% 30.02 in 10.0 mi NNW 16.1 mph - N/A   Clear
5:55 PM 66.2 °F 46.4 °F 49% 30.02 in 10.0 mi NNW 15.0 mph 23.0 mph N/A   Clear
6:15 PM 66.2 °F 46.4 °F 49% 30.03 in 10.0 mi NNW 16.1 mph - N/A   Clear
6:35 PM 66.2 °F 46.4 °F 49% 30.03 in 10.0 mi NW 15.0 mph 20.7 mph N/A   Clear
6:55 PM 66.2 °F 46.4 °F 49% 30.03 in 10.0 mi NNW 10.4 mph 19.6 mph N/A   Clear
7:15 PM 64.4 °F 46.4 °F 52% 30.03 in 10.0 mi NW 9.2 mph - N/A   Clear
7:35 PM 60.8 °F 50.0 °F 68% 30.04 in 10.0 mi NW 5.8 mph - N/A   Clear
7:55 PM 57.2 °F 50.0 °F 77% 30.04 in 10.0 mi WNW 8.1 mph - N/A   Clear
8:15 PM 57.2 °F 48.2 °F 72% 30.05 in 10.0 mi WNW 6.9 mph - N/A   Clear
8:35 PM 55.4 °F 50.0 °F 82% 30.05 in 10.0 mi West 5.8 mph - N/A   Clear
8:55 PM 55.4 °F 48.2 °F 77% 30.05 in 10.0 mi WNW 6.9 mph - N/A   Clear
9:15 PM 53.6 °F 50.0 °F 88% 30.06 in 10.0 mi West 5.8 mph - N/A   Clear
9:35 PM 51.8 °F 50.0 °F 94% 30.07 in 10.0 mi West 8.1 mph - N/A   Clear
9:55 PM 51.8 °F 50.0 °F 94% 30.07 in 10.0 mi West 9.2 mph - N/A   Clear
10:15 PM 51.8 °F 51.8 °F 100% 30.08 in 10.0 mi West 8.1 mph - N/A   Clear
10:35 PM 53.6 °F 51.8 °F 94% 30.09 in 10.0 mi West 9.2 mph - N/A   Clear
10:55 PM 53.6 °F 51.8 °F 94% 30.09 in 10.0 mi WNW 9.2 mph - N/A   Clear
11:15 PM 53.6 °F 51.8 °F 94% 30.10 in 10.0 mi WNW 8.1 mph - N/A   Clear
11:35 PM 53.6 °F 50.0 °F 88% 30.10 in 10.0 mi WNW 8.1 mph - N/A   Clear
11:55 PM 51.8 °F 50.0 °F 94% 30.10 in 10.0 mi WNW 8.1 mph - N/A   Clear